TimeEST,TemperatureF,Dew PointF,Humidity,Sea Level PressureIn,VisibilityMPH,Wind Direction,Wind SpeedMPH,Gust SpeedMPH,PrecipitationIn,Events,Conditions,WindDirDegrees,DateUTC
12:15 AM,24.8,21.2,86,29.81,2.0,West,6.9,-,N/A,Snow,Light Snow,260,2013-02-01 05:15:00
12:35 AM,24.8,21.2,86,29.80,3.0,WSW,4.6,-,N/A,Snow,Light Snow,250,2013-02-01 05:35:00
1:15 AM,24.8,21.2,86,29.77,2.0,SW,5.8,-,N/A,Snow,Light Snow,230,2013-02-01 06:15:00
1:35 AM,24.8,23.0,93,29.77,1.5,WSW,5.8,-,N/A,Snow,Light Snow,240,2013-02-01 06:35:00
1:55 AM,24.8,23.0,93,29.76,1.5,WSW,4.6,-,N/A,,Overcast,250,2013-02-01 06:55:00
2:15 AM,24.8,23.0,93,29.75,1.5,WSW,5.8,-,0.01,Snow,Light Snow,240,2013-02-01 07:15:00
2:35 AM,24.8,23.0,93,29.75,2.0,SW,8.1,-,0.01,Snow,Light Snow,230,2013-02-01 07:35:00
2:55 AM,26.6,23.0,86,29.75,3.0,WSW,12.7,21.9,0.01,Snow,Light Snow,240,2013-02-01 07:55:00
3:15 AM,23.0,21.2,93,29.79,0.5,NW,8.1,19.6,0.01,Snow,Light Snow,310,2013-02-01 08:15:00
3:35 AM,21.2,14.0,74,29.83,1.2,North,23.0,34.5,0.01,Snow,Light Snow,350,2013-02-01 08:35:00
4:15 AM,17.6,10.4,73,29.87,5.0,WNW,8.1,25.3,N/A,Snow,Light Snow,300,2013-02-01 09:15:00
4:35 AM,17.6,10.4,73,29.88,4.0,WNW,9.2,-,N/A,Snow,Light Snow,300,2013-02-01 09:35:00
4:55 AM,15.8,10.4,79,29.91,1.8,NW,8.1,19.6,N/A,Snow,Light Snow,320,2013-02-01 09:55:00
5:15 AM,14.0,8.6,79,29.92,4.0,WNW,6.9,19.6,N/A,Snow,Light Snow,300,2013-02-01 10:15:00
5:35 AM,14.0,5.0,67,29.93,4.0,WNW,13.8,26.5,N/A,Snow,Light Snow,290,2013-02-01 10:35:00
6:15 AM,14.0,3.2,62,29.96,10.0,WNW,15.0,24.2,N/A,,Mostly Cloudy,290,2013-02-01 11:15:00
6:35 AM,12.2,6.8,79,29.98,1.8,NW,12.7,18.4,N/A,Snow,Light Snow,310,2013-02-01 11:35:00
6:55 AM,12.2,5.0,73,30.00,4.0,WNW,11.5,18.4,N/A,Snow,Light Snow,300,2013-02-01 11:55:00
7:15 AM,12.2,3.2,67,30.01,5.0,WNW,12.7,17.3,N/A,,Haze,290,2013-02-01 12:15:00
7:35 AM,10.4,5.0,79,30.03,1.0,NW,10.4,27.6,N/A,Snow,Snow,310,2013-02-01 12:35:00
8:15 AM,10.4,3.2,73,30.07,3.0,NW,9.2,19.6,N/A,Snow,Light Snow,310,2013-02-01 13:15:00
8:35 AM,10.4,3.2,73,30.08,1.5,WNW,9.2,21.9,N/A,Snow,Light Snow,300,2013-02-01 13:35:00
9:15 AM,8.6,-2.2,62,30.12,4.0,WNW,11.5,23.0,N/A,,Haze,290,2013-02-01 14:15:00
9:35 AM,8.6,-4.0,57,30.13,3.0,WNW,13.8,24.2,N/A,,Haze,290,2013-02-01 14:35:00
9:55 AM,8.6,-2.2,62,30.14,7.0,WNW,10.4,17.3,N/A,,Overcast,300,2013-02-01 14:55:00
10:15 AM,8.6,-2.2,62,30.15,7.0,WNW,10.4,-,N/A,,Overcast,300,2013-02-01 15:15:00
10:35 AM,8.6,-4.0,57,30.16,10.0,NW,12.7,20.7,N/A,,Mostly Cloudy,320,2013-02-01 15:35:00
10:55 AM,10.4,-4.0,52,30.17,10.0,WNW,13.8,18.4,N/A,,Scattered Clouds,290,2013-02-01 15:55:00
11:15 AM,10.4,-4.0,52,30.17,10.0,WNW,12.7,23.0,N/A,,Scattered Clouds,290,2013-02-01 16:15:00
11:35 AM,10.4,-4.0,52,30.18,10.0,WNW,11.5,18.4,N/A,,Clear,290,2013-02-01 16:35:00
11:55 AM,10.4,-2.2,57,30.18,10.0,NW,8.1,16.1,N/A,,Clear,310,2013-02-01 16:55:00
12:15 PM,12.2,-0.4,57,30.19,10.0,NW,11.5,18.4,N/A,,Clear,310,2013-02-01 17:15:00
12:35 PM,12.2,-0.4,57,30.18,10.0,NW,8.1,-,N/A,,Clear,310,2013-02-01 17:35:00
12:55 PM,12.2,-0.4,57,30.18,10.0,WNW,8.1,17.3,N/A,,Scattered Clouds,300,2013-02-01 17:55:00
1:15 PM,12.2,1.4,62,30.17,10.0,NW,10.4,-,N/A,,Clear,320,2013-02-01 18:15:00
1:35 PM,14.0,-0.4,53,30.17,10.0,NW,10.4,17.3,N/A,,Clear,320,2013-02-01 18:35:00
1:55 PM,14.0,-0.4,53,30.17,10.0,WNW,6.9,20.7,N/A,,Clear,290,2013-02-01 18:55:00
2:15 PM,14.0,1.4,57,30.17,10.0,NW,10.4,19.6,N/A,,Scattered Clouds,310,2013-02-01 19:15:00
2:35 PM,14.0,1.4,57,30.19,10.0,NW,11.5,17.3,N/A,,Scattered Clouds,320,2013-02-01 19:35:00
2:55 PM,14.0,-0.4,53,30.19,10.0,NW,12.7,19.6,N/A,,Clear,320,2013-02-01 19:55:00
3:15 PM,14.0,-0.4,53,30.19,10.0,NW,11.5,18.4,N/A,,Clear,320,2013-02-01 20:15:00
3:35 PM,14.0,-0.4,53,30.19,10.0,WNW,9.2,17.3,N/A,,Scattered Clouds,300,2013-02-01 20:35:00
3:55 PM,14.0,-0.4,53,30.19,10.0,NW,8.1,-,N/A,,Scattered Clouds,320,2013-02-01 20:55:00
4:15 PM,14.0,-2.2,49,30.20,10.0,WNW,10.4,19.6,N/A,,Clear,290,2013-02-01 21:15:00
4:35 PM,14.0,-4.0,45,30.20,10.0,WNW,9.2,19.6,N/A,,Clear,290,2013-02-01 21:35:00
4:55 PM,14.0,-2.2,49,30.20,10.0,WNW,5.8,-,N/A,,Clear,300,2013-02-01 21:55:00
5:15 PM,12.2,-2.2,53,30.21,10.0,West,8.1,-,N/A,,Clear,280,2013-02-01 22:15:00
5:35 PM,12.2,-4.0,48,30.22,10.0,WNW,3.5,-,N/A,,Clear,290,2013-02-01 22:35:00
5:55 PM,12.2,-2.2,53,30.22,10.0,Calm,Calm,-,N/A,,Clear,0,2013-02-01 22:55:00
6:15 PM,10.4,-2.2,57,30.22,10.0,Calm,Calm,-,N/A,,Clear,0,2013-02-01 23:15:00
6:35 PM,10.4,-2.2,57,30.23,10.0,Calm,Calm,-,N/A,,Clear,0,2013-02-01 23:35:00
6:55 PM,10.4,-2.2,57,30.23,10.0,NW,6.9,-,N/A,,Clear,310,2013-02-01 23:55:00
7:15 PM,10.4,-2.2,57,30.23,10.0,NW,4.6,-,N/A,,Clear,310,2013-02-02 00:15:00
7:35 PM,10.4,-2.2,57,30.24,10.0,WNW,4.6,-,N/A,,Clear,300,2013-02-02 00:35:00
7:55 PM,10.4,-2.2,57,30.24,10.0,WNW,4.6,-,N/A,,Clear,290,2013-02-02 00:55:00
8:15 PM,10.4,-0.4,62,30.25,10.0,WNW,3.5,-,N/A,,Clear,290,2013-02-02 01:15:00
8:35 PM,10.4,-0.4,62,30.26,10.0,West,4.6,-,N/A,,Clear,280,2013-02-02 01:35:00
8:55 PM,10.4,-0.4,62,30.26,10.0,West,3.5,-,N/A,,Clear,260,2013-02-02 01:55:00
9:15 PM,8.6,-0.4,67,30.26,10.0,Calm,Calm,-,N/A,,Clear,0,2013-02-02 02:15:00
9:35 PM,8.6,-2.2,62,30.27,10.0,Calm,Calm,-,N/A,,Clear,0,2013-02-02 02:35:00
9:55 PM,8.6,-2.2,62,30.26,10.0,Calm,Calm,-,N/A,,Clear,0,2013-02-02 02:55:00
10:15 PM,5.0,-2.2,72,30.26,10.0,Calm,Calm,-,N/A,,Clear,0,2013-02-02 03:15:00
10:35 PM,8.6,-0.4,67,30.26,10.0,Calm,Calm,-,N/A,,Clear,0,2013-02-02 03:35:00
10:55 PM,8.6,-0.4,67,30.26,10.0,Calm,Calm,-,N/A,,Clear,0,2013-02-02 03:55:00
11:15 PM,8.6,-0.4,67,30.25,10.0,Calm,Calm,-,N/A,,Clear,0,2013-02-02 04:15:00
11:35 PM,5.0,-2.2,72,30.25,10.0,Calm,Calm,-,N/A,,Clear,0,2013-02-02 04:35:00
11:55 PM,5.0,-2.2,72,30.25,10.0,Calm,Calm,-,N/A,,Clear,0,2013-02-02 04:55:00